Regional Weather Roundup
Issued by NWS

Home | Current Version | Previous Version | Graphics & Text | Print | Product List | Glossary On
Versions: 1 2 3 4 5 6 7 8 9 10 11 12 13 14 15 16 17 18 19 20 21 22 23 24 25 26 27 28 29 30 31 32 33 34 35 36 37 38 39 40 41 42 43 44 45 46 47 48 49 50
000
ASUS45 KABQ 271401
RWRNM
WEATHER ROUNDUP FOR NEW MEXICO
NATIONAL WEATHER SERVICE ALBUQUERQUE NM
800 AM MDT FRI MAR 27 2015

NOTE: "FAIR" MEANS FEW OR NO CLOUDS BELOW 12,000 FEET AGL WITH NO
       SIGNIFICANT WEATHER OR OBSTRUCTIONS TO VISION.

      THIS PRODUCT IS RELEASED AS TWO VERSIONS.  ONE VERSION NEAR
      THE TOP OF THE HOUR CONTAINING PRELIMINARY DATA FROM ALBUQUERQUE
      AND OTHER STATIONS.  A FINAL VERSION WITH ADDITIONAL DATA IS
      ISSUED ABOUT 10 MINUTES AFTER THE HOUR.

NMZ501-503-504-510>518-271500-
NORTHWEST PLATEAU/NORTHCENTRAL MOUNTAINS

CITY           SKY/WX    TMP DP  RH WIND       PRES   REMARKS
FARMINGTON     CLEAR     36  20  52 E8        30.32R WCI  30
SANTA FE       MOSUNNY   37  18  46 NE8       30.31R WCI  31
TAOS           SUNNY     30  19  64 CALM      30.34R

$$
NMZ402-403-502-505>509-271500-
WESTCENTRAL MOUNTAINS/SOUTHWEST MOUNTAINS

CITY           SKY/WX    TMP DP  RH WIND       PRES   REMARKS
GALLUP         CLEAR     28  12  51 E3        30.38R

$$
NMZ407-409-411-412-271500-
SOUTHERN DESERTS

CITY           SKY/WX    TMP DP  RH WIND       PRES   REMARKS
DEMING         SUNNY     39  22  50 NW6       30.29R WCI  35
ALAMOGORDO     MOSUNNY   46  23  39 SW3       30.28R
T OR C         SUNNY     45  21  38 N6        30.28R

$$
NMZ519>523-271500-
CENTRAL VALLEYS/CENTRAL HIGHLANDS

CITY           SKY/WX    TMP DP  RH WIND       PRES   REMARKS
ALBUQUERQUE    MOSUNNY   43  21  41 SE3       30.32R
DOUBLE EAGLE   MOSUNNY   39  18  41 CALM      30.33R
CLINES CORNERS MOSUNNY   41  17  38 NW18      30.27F
BELEN          FAIR      39  23  53 CALM      30.31R
SOCORRO        NOT AVBL

$$
NMZ524>526-539-540-271500-
SOUTHCENTRAL MOUNTAINS

CITY           SKY/WX    TMP DP  RH WIND       PRES   REMARKS
RUIDOSO        NOT AVBL

$$
NMZ527>531-271500-
NORTHEAST HIGHLANDS/NORTHEAST PLAINS

CITY           SKY/WX    TMP DP  RH WIND       PRES   REMARKS
LAS VEGAS      MOSUNNY   44  21  40 NW6       30.27R
RATON          SUNNY     32  22  66 NE5       30.24R WCI  27
CLAYTON        SUNNY     45  26  47 SW6       30.20R

$$
NMZ532>537-271500-
EASTCENTRAL PLAINS

CITY           SKY/WX    TMP DP  RH WIND       PRES   REMARKS
TUCUMCARI      SUNNY     46  26  45 NW5       30.19R
CANNON AFB     NOT AVBL
CLOVIS AIRPORT SUNNY     41  27  56 NW6       30.20S

$$
NMZ028-029-538-271500-
SOUTHEAST PLAINS

CITY           SKY/WX    TMP DP  RH WIND       PRES   REMARKS
ROSWELL        SUNNY     40  28  62 NW5       30.22R
ARTESIA        SUNNY     46  30  53 CALM      30.22R
CARLSBAD       SUNNY     44  35  70 CALM      30.20R
HOBBS          SUNNY     46  28  49 SW8       30.21S


$$


USA.gov is the U.S. government's official web portal to all federal, state and local government web resources and services.